{"data":{"norad_id":64195,"epoch":"2026-09-20T05:28:06.116448Z","epoch_age_seconds":163973,"freshness":"FRESH","line1":"1 64195U 25113AB  26263.22784857  .00011648  00000+0  38626-3 0  9996","line2":"2 64195  53.1577 266.5359 0001579 120.7549 239.3608 15.31721310 74827","mean_motion":15.3172131,"eccentricity":0.0001579,"inclination_deg":53.1577,"raan_deg":266.5359,"arg_perigee_deg":120.7549,"mean_anomaly_deg":239.3608,"bstar":0.00038626,"rev_number":7482,"period_min":94.011880007075,"perigee_km":469.59504431379,"apogee_km":471.75789960823,"semimajor_km":6848.813471961,"source":"CELESTRAK","updated_at":"2026-09-21T09:00:35.269185Z"}}